Torna al catalogo

STARLINK-11293

AttivoComunicazioniVLEO
NORAD 61249·PAYLOAD·🇺🇸 United States

Lanciato Sep 25, 2024 da Vandenberg Space Force Base

Loading…

Prossimi Passaggi (prossime 24 ore)

TLE

AggiornatoSource: CelesTrak SupGP

Epoca: Sep 14, 2026, 21:01 UTC

1 61249C 24175G   26257.87618056  .00057260  00000+0  47136-3 0  2574
2 61249  53.1575 203.3257 0001100  99.7660 297.8542 15.69696812    12

Traccia STARLINK-11293 in tempo reale con AllMySat

Download on the App Store